Fort Stockton, TX

3:33 PM CDT on March 29, 2017 (GMT -0500)
Fort Stockton-Pecos County

Weather History for KFST - September, 2013

Change the Weather History Date:

Monday, September 2, 2013

  Actual Average Record
Temperature  
Mean Temperature 81 °F -  
Max Temperature 91 °F 89 °F 100 °F (2000)
Min Temperature 73 °F 66 °F 57 °F (2004)
Cooling Degree Days 16    
Growing Degree Days 31 (Base 50)    
Moisture  
Dew Point 58 °F    
Average Humidity 48    
Maximum Humidity 64    
Minimum Humidity 34    
Precipitation  
Precipitation 0.00 in - - ()
Sea Level Pressure  
Sea Level Pressure 29.89 in    
Wind  
Wind Speed 7 mph (SE)    
Max Wind Speed 15 mph    
Max Gust Speed 16 mph    
Visibility 10 miles    
Events Rain    
Averages and records for this station are not official NWS values.
T = Trace of Precipitation, MM = Missing Value Source: NWS Daily Summary

Daily Weather History Graph

Daily Weather History Graph

Search for Another Location

Airport or City:

Trip Planner

Search our weather history database for the weather conditions in past years. The results will help you decide how hot, cold, wet, or windy it might be!

Date:

Astronomy

Sep. 02, 2013 Rise Set
Actual Time 7:28 AM CDT 8:13 PM CDT
Civil Twilight 7:04 AM CDT 8:37 PM CDT
Nautical Twilight 6:35 AM CDT 9:06 PM CDT
Astronomical Twilight 6:05 AM CDT 9:36 PM CDT
Moon 4:54 AM CDT (9/2) 6:23 PM CDT (9/2)
Length of Visible Light 13h 33m
Length of Day
12h 44m
Waning Crescent, 8% of the Moon is Illuminated
Sep 2
Waning Crescent
Sep 5
New
Sep 12
First Quarter
Sep 19
Full
Sep 26
Last Quarter

Hourly Weather History & Observations

Time (CDT) Temp. Heat Index Dew Point Humidity Pressure Visibility Wind Dir Wind Speed Gust Speed Precip Events Conditions
12:53 AM 79.0 °F - 52.0 °F 39% 29.85 in 10.0 mi South 6.9 mph - N/A   Clear
1:53 AM 78.1 °F - 52.0 °F 40% 29.86 in 10.0 mi South 9.2 mph - N/A   Clear
2:53 AM 77.0 °F - 53.1 °F 43% 29.85 in 10.0 mi South 6.9 mph - N/A   Clear
3:53 AM 77.0 °F - 54.0 °F 45% 29.84 in 10.0 mi South 9.2 mph - N/A   Clear
4:53 AM 78.1 °F - 55.9 °F 46% 29.84 in 10.0 mi South 10.4 mph - N/A   Clear
5:53 AM 75.0 °F - 55.0 °F 50% 29.86 in 10.0 mi SSW 5.8 mph - N/A   Clear
6:53 AM 75.9 °F - 55.9 °F 50% 29.86 in 10.0 mi SW 4.6 mph - N/A   Clear
7:53 AM 73.9 °F - 55.0 °F 52% 29.89 in 10.0 mi SSW 4.6 mph - N/A   Clear
8:53 AM 75.0 °F - 55.9 °F 51% 29.93 in 10.0 mi NNE 3.5 mph - N/A   Partly Cloudy
9:53 AM 77.0 °F - 55.9 °F 48% 29.95 in 10.0 mi NE 5.8 mph - N/A   Scattered Clouds
10:53 AM 77.0 °F - 57.9 °F 52% 29.98 in 10.0 mi ESE 5.8 mph - 0.00 in Rain Light Rain
11:53 AM 80.1 °F 80.7 °F 59.0 °F 48% 29.99 in 10.0 mi East 9.2 mph - 0.00 in   Mostly Cloudy
12:53 PM 77.0 °F - 61.0 °F 58% 29.98 in 10.0 mi ESE 13.8 mph - N/A   Mostly Cloudy
1:53 PM 82.9 °F 83.7 °F 62.1 °F 49% 29.94 in 10.0 mi SE 10.4 mph - N/A   Scattered Clouds
2:53 PM 87.1 °F 86.5 °F 59.0 °F 39% 29.92 in 10.0 mi SE 3.5 mph - N/A   Scattered Clouds
3:53 PM 89.1 °F 88.0 °F 57.9 °F 35% 29.88 in 10.0 mi South 8.1 mph 16.1 mph N/A   Clear
4:53 PM 89.1 °F 87.7 °F 57.0 °F 34% 29.86 in 10.0 mi ESE 9.2 mph - N/A   Clear
5:53 PM 84.0 °F 84.9 °F 63.0 °F 49% 29.86 in 10.0 mi ESE 15.0 mph - 0.00 in Rain Light Rain
6:53 PM 84.0 °F 84.5 °F 62.1 °F 47% 29.86 in 10.0 mi ESE 5.8 mph - 0.00 in   Clear
7:53 PM 82.9 °F 83.3 °F 61.0 °F 47% 29.86 in 10.0 mi ESE 5.8 mph - N/A   Clear
8:53 PM 80.1 °F 81.1 °F 61.0 °F 52% 29.87 in 10.0 mi ESE 5.8 mph - N/A   Clear
9:53 PM 81.0 °F 81.7 °F 61.0 °F 50% 29.89 in 10.0 mi SE 6.9 mph - N/A   Clear
10:53 PM 77.0 °F - 60.1 °F 56% 29.91 in 10.0 mi SSE 3.5 mph - N/A   Clear
11:53 PM 73.9 °F - 61.0 °F 64% 29.93 in 10.0 mi SSE 5.8 mph - N/A   Clear